Location: Le Hiès Ruisseau
(43.3000°N, 0.4500°W)
Time: 07:57:49
(UTC+00:00)

NOAA 6 - Pass Details

Date: 28 January 2023
Orbit: 770 x 786 km, 98.7° (Epoch: 26 March)

Event Time Altitude Azimuth Distance (km) Brightness Sun altitude
Rises 17:43:00 0° 160° (SSE) 3,240 7.2 -6.8°
Reaches altitude 10° 17:45:18 10° 159° (SSE) 2,320 6.5 -7.2°
Maximum altitude 17:50:25 78° 74° (ENE) 801 4.0 -8.1°
Drops below altitude 10° 17:55:35 10° 349° (N) 2,347 6.5 -9.0°
Sets 17:57:55 0° 348° (NNW) 3,282 7.2 -9.4°
